Wind_Speed
13 8 5 6 6 6 5 4 2 3 2 6 5 5 7 7 9 9 9 7 6 6 4 6 8 5 4 6 8 9 9 7 4 2 4 6 9 9 10 12 14 17 17 17 17 18 18 21 20 16 18 17 16 16 17 17 16 16 16 16 16 17 16 16 16 16 16 15 15 14 13 12 12 12 12 11 11 11 12 12 12 12 12 12 12 11 11 11 12 12 13 13 13 12 12 12 12
13 8 6 6 6 5 1 3 1 3 4 6 6 6 8 7 7 8 8 5 6 7 6 8 8 7 7 8 8 7 9 10 7 7 8 10 11 10 11 13 15 17 17 17 18 19 18 21 21 17 17 16 16 16 17 17 16 16 15 15 16 17 17 17 16 16 16 15 15 14 13 12 12 11 11 11 11 11 11 11 11 11 11 11 11 10 11 11 11 11 12 12 12 11 11 11 11
11 8 6 6 6 6 3 3 1 4 5 6 7 6 6 6 8 9 8 8 9 9 8 8 7 5 5 9 6 5 7 9 11 10 9 10 10 9 12 13 15 16 16 17 17 18 19 22 22 18 16 15 17 17 18 17 15 15 14 15 15 17 17 16 16 15 15 14 14 13 12 11 11 10 11 10 10 10 10 11 10 10 11 11 10 10 10 10 11 10 10 11 10 10 10 10 11
10 8 6 5 5 5 3 1 1 3 6 5 6 6 5 7 9 9 9 10 9 9 8 7 7 4 2 8 7 8 10 9 11 10 8 9 10 12 13 14 16 16 15 15 15 16 17 22 21 18 16 16 17 17 17 16 15 14 13 14 15 16 17 16 15 14 14 13 12 12 11 11 10 10 10 10 10 10 10 10 9 10 10 10 9 9 9 10 10 9 9 9 9 9 9 10 11
10 7 7 7 3 1 3 1 2 4 6 5 6 6 6 9 9 10 10 9 8 7 6 5 6 5 7 8 4 6 9 9 11 11 10 11 13 14 14 15 15 15 15 14 14 14 17 22 21 18 17 16 16 16 16 15 15 14 13 14 15 16 16 16 15 14 12 12 11 11 10 10 9 9 9 9 9 9 9 9 9 9 9 9 8 8 9 9 9 8 8 8 9 8 8 10 11
9 7 7 8 3 2 2 2 4 7 6 5 7 7 7 8 9 11 10 9 7 5 5 3 6 8 8 8 7 7 6 8 10 10 13 14 15 15 15 15 15 15 15 15 14 14 18 21 20 19 17 16 16 15 15 15 15 14 13 14 14 15 16 16 15 13 12 11 10 10 9 9 8 8 8 9 8 8 8 8 8 8 8 8 7 8 8 8 8 8 8 8 9 8 9 12 12
7 5 5 6 2 2 1 5 6 7 5 5 8 8 8 9 9 11 10 9 7 6 4 4 7 8 7 7 9 8 6 9 10 12 15 16 16 16 15 15 15 16 15 14 14 14 18 20 19 19 17 16 16 14 14 15 15 14 13 13 13 14 16 16 14 12 11 11 10 9 9 8 8 8 8 8 8 7 7 7 7 7 7 7 6 7 8 8 8 8 8 8 8 9 10 11 12
6 4 2 3 2 2 2 7 6 6 6 5 8 8 8 9 8 9 10 8 7 7 6 7 7 6 7 8 8 7 8 11 13 16 18 17 17 17 15 15 16 15 15 14 14 15 18 19 19 19 17 16 16 14 15 17 16 14 13 13 14 15 15 14 13 12 11 10 9 9 9 8 7 7 7 7 7 6 6 6 6 6 5 5 5 6 6 6 7 7 7 8 8 9 11 11 11
6 4 2 3 1 2 4 6 6 6 6 6 8 8 7 8 7 7 8 7 8 8 8 8 5 5 10 10 10 9 9 12 17 19 17 17 17 17 16 15 16 15 15 14 14 16 17 18 19 18 17 17 16 15 16 17 17 15 14 14 15 15 14 13 12 11 10 9 9 9 8 8 7 6 6 6 6 6 5 5 5 4 3 3 4 5 5 5 6 7 7 8 9 10 11 11 12
5 3 3 3 1 3 5 5 6 6 7 6 7 7 7 6 5 6 7 8 9 9 9 6 4 8 12 12 10 8 11 16 19 18 17 17 17 16 16 16 16 16 15 15 15 15 16 17 18 17 18 18 17 16 16 16 16 15 14 15 15 14 13 12 11 10 9 9 9 8 8 7 6 6 6 6 5 5 5 4 3 2 2 3 5 6 7 7 7 7 8 9 10 10 10 11 11
3 2 3 2 1 3 5 6 6 6 7 6 6 7 6 5 5 6 6 9 9 9 9 7 8 12 13 11 7 10 15 17 18 18 18 17 16 16 17 16 16 16 15 15 15 15 16 16 17 17 17 18 17 17 16 16 16 15 15 15 14 13 12 11 10 10 9 9 8 8 7 7 6 6 6 5 5 5 4 2 1 2 3 5 6 7 8 9 9 8 9 10 10 10 9 9 9
3 3 3 2 3 4 4 5 6 7 7 5 7 6 4 5 5 6 7 8 9 10 10 7 10 13 12 10 6 12 17 16 17 18 18 17 16 16 16 16 16 15 15 16 15 16 17 17 17 17 17 17 17 16 16 15 15 15 14 14 13 12 11 10 10 9 9 8 8 7 7 6 6 6 6 5 4 4 3 1 2 3 4 5 7 7 8 9 9 8 9 10 9 10 9 8 7
3 1 2 1 2 4 4 4 6 6 6 5 7 6 4 5 4 5 7 8 9 9 9 7 11 11 10 10 9 12 15 16 18 18 18 16 16 16 16 16 16 16 15 15 15 16 16 16 17 16 16 17 16 15 14 14 13 13 13 12 11 11 10 10 10 9 9 8 8 7 6 6 6 5 5 4 4 3 2 0 3 5 5 6 8 8 9 9 9 9 9 9 9 9 8 7 7
3 1 2 0 0 3 4 4 4 4 6 7 7 7 5 4 3 4 6 10 8 7 9 10 12 10 10 11 10 11 14 18 19 18 17 16 16 15 16 17 16 15 15 15 14 15 15 15 15 16 16 16 16 15 14 13 12 11 11 11 10 10 10 10 10 9 8 8 7 7 6 6 6 5 5 4 3 2 1 1 4 6 7 8 9 9 8 9 9 9 9 8 9 9 8 7 7
3 1 2 2 1 2 3 3 3 2 6 8 8 8 7 3 3 5 6 8 8 7 10 10 9 7 10 11 10 13 17 21 20 19 18 16 16 15 16 16 16 15 14 14 14 14 14 14 14 15 16 15 14 14 13 13 12 12 11 11 10 10 10 10 9 9 8 8 7 6 6 6 5 5 4 4 2 2 1 1 5 6 8 9 9 9 8 8 8 8 9 9 9 8 7 7 6
3 2 3 2 1 2 2 3 2 2 6 9 9 9 8 6 5 6 4 3 8 10 9 9 6 3 9 11 13 19 23 23 21 20 19 17 17 16 16 16 15 14 13 14 13 13 13 14 14 14 14 14 13 12 13 13 12 12 11 11 11 11 10 10 9 8 8 7 7 6 6 6 5 4 3 2 1 1 1 3 6 7 8 9 9 8 7 7 8 9 9 10 9 8 7 7 5
3 4 3 1 1 2 3 4 2 3 8 10 11 11 9 9 7 4 4 3 9 11 8 9 6 2 7 11 18 25 26 24 22 21 20 18 18 17 17 17 16 15 13 14 13 13 13 13 14 14 14 13 13 12 12 12 12 12 11 11 10 10 10 10 9 8 8 7 6 5 5 5 4 3 3 2 2 2 3 5 6 7 8 9 9 7 7 8 9 10 10 10 9 8 8 6 6
3 3 3 1 1 2 3 5 2 3 9 11 12 12 9 11 10 6 6 8 10 10 9 10 6 5 10 17 24 27 26 25 24 23 21 19 18 17 17 17 17 16 15 15 13 13 13 13 14 14 14 14 13 11 11 12 12 11 11 10 10 10 10 9 8 8 8 7 6 5 5 4 4 3 3 3 2 2 4 7 7 7 7 8 8 7 7 8 9 9 9 9 9 9 8 5 5
5 4 4 1 1 2 3 4 4 3 8 11 12 12 9 11 11 9 10 10 12 11 10 11 9 11 15 21 25 26 26 25 24 24 22 20 19 18 17 17 17 17 17 16 15 14 13 14 14 14 14 14 13 12 12 12 12 12 11 11 10 10 9 9 9 8 7 7 6 6 5 4 4 4 4 4 4 3 6 8 8 8 7 7 7 6 7 9 9 9 9 9 9 8 6 4 5
6 6 4 1 1 0 2 5 6 4 8 12 12 12 9 10 11 9 10 11 12 11 11 13 12 14 17 21 24 25 25 24 24 24 23 21 20 19 18 17 17 17 17 16 16 15 13 14 14 14 14 14 13 12 11 11 12 11 11 11 10 10 9 9 9 8 7 7 7 6 5 5 4 4 5 5 4 3 5 9 9 7 6 7 7 7 6 8 9 9 10 9 6 5 4 3 5
5 5 5 1 2 2 3 5 7 6 8 12 12 12 10 11 11 10 10 10 11 11 12 15 15 17 19 21 23 25 24 24 24 23 23 22 20 19 17 17 16 16 16 16 16 16 15 15 15 14 14 14 13 12 11 11 11 11 11 10 10 10 9 9 9 8 8 7 7 6 6 5 5 5 4 4 4 3 4 8 8 6 6 7 7 6 4 6 6 5 7 6 4 4 4 4 5
5 6 8 4 1 3 2 4 8 7 8 11 13 12 10 11 11 10 12 9 6 8 12 14 15 19 21 22 22 23 23 23 23 23 22 22 20 19 17 16 15 15 15 15 17 17 17 16 15 15 14 14 13 12 11 11 11 11 10 10 10 9 9 9 8 8 8 8 7 6 6 6 5 5 5 5 5 4 5 5 5 3 5 6 5 5 4 4 5 4 5 5 4 4 4 4 5
6 7 9 7 5 4 1 4 9 9 10 12 13 12 11 12 11 10 13 7 3 5 11 12 14 19 23 24 22 21 21 21 22 23 22 22 21 20 18 18 16 16 15 15 16 17 17 17 16 15 15 15 14 12 11 11 11 10 10 10 10 9 9 9 8 8 8 8 8 7 7 6 6 6 5 5 5 5 5 5 5 4 4 4 3 4 4 4 4 5 5 5 5 5 5 5 5
9 7 9 8 7 6 5 5 9 11 12 12 11 12 13 13 10 10 13 7 4 3 10 12 15 19 22 22 21 21 21 21 22 23 22 22 21 20 19 18 17 16 16 16 16 16 17 17 17 16 15 15 14 13 12 11 11 10 10 10 10 9 9 9 9 8 8 8 8 8 7 6 6 6 5 6 5 5 5 5 5 4 4 4 4 4 4 4 5 5 5 6 6 6 6 6 6
11 9 8 8 7 8 7 6 10 13 11 11 13 13 14 13 9 10 13 8 4 6 11 13 15 18 20 20 20 20 19 21 22 22 21 20 20 20 18 18 17 16 16 17 16 16 17 17 17 16 15 14 14 13 12 12 11 11 11 10 10 10 10 9 8 8 8 8 8 8 8 7 6 6 5 5 5 5 5 5 5 4 4 4 4 4 4 5 5 5 5 6 6 6 6 6 7
9 12 10 8 8 7 7 8 11 13 10 11 15 13 13 12 7 9 12 9 6 9 13 14 16 18 18 19 19 19 18 20 21 21 21 19 20 20 19 18 18 17 17 17 16 16 16 17 17 17 15 14 13 13 13 12 12 11 11 11 11 10 10 10 9 9 8 8 8 9 9 8 6 6 5 5 5 5 5 5 5 5 5 5 5 5 5 5 5 5 5 5 6 6 6 6 7
3 9 9 8 8 6 8 10 12 13 11 14 15 12 12 12 7 7 11 10 8 11 14 15 16 16 17 17 17 17 18 20 21 21 20 19 20 21 20 19 19 18 17 17 17 16 16 17 17 17 16 14 14 14 13 13 12 12 12 12 11 11 11 10 10 9 9 9 8 8 8 8 7 6 5 5 5 6 6 6 6 6 6 6 6 6 5 5 5 5 5 5 6 6 6 6 6
4 5 6 7 8 8 9 11 13 12 11 15 13 10 11 11 9 7 12 13 10 12 14 15 15 15 17 17 16 15 16 19 21 21 21 20 20 21 21 20 20 19 18 19 18 16 17 18 17 17 17 15 15 15 14 14 13 13 13 12 12 12 11 10 10 10 9 9 9 8 8 8 7 6 6 6 6 7 7 7 7 7 7 7 6 6 5 5 6 6 6 6 6 6 6 5 5
6 7 7 7 7 8 11 11 14 13 11 14 11 8 9 11 12 9 13 15 12 12 13 15 15 14 16 16 15 13 15 18 19 19 21 21 19 20 21 21 20 19 19 19 18 17 17 18 17 17 18 17 16 15 15 14 14 14 13 13 12 12 12 11 10 10 10 9 9 10 9 9 8 7 6 7 7 7 7 7 8 8 7 7 7 6 6 5 5 6 6 6 5 6 6 5 5
7 9 9 6 6 8 11 11 14 13 10 15 12 6 8 13 15 11 14 16 14 13 13 14 13 13 15 15 14 13 15 17 18 19 20 20 19 18 20 20 20 19 17 18 19 18 17 17 17 17 18 18 17 16 15 15 14 14 13 13 12 12 12 11 11 10 10 9 9 10 10 10 9 8 7 7 7 8 8 8 8 7 7 6 6 6 5 5 5 6 6 6 6 6 6 5 5
8 9 8 7 6 6 11 11 15 14 10 16 13 6 5 10 15 14 15 16 16 14 13 14 13 13 13 14 14 14 15 17 19 20 19 20 19 18 19 19 20 19 17 17 19 19 18 17 16 17 18 19 18 18 17 16 14 14 13 12 12 12 11 11 11 11 10 10 9 9 9 10 10 10 10 8 8 8 8 8 7 7 6 5 5 6 5 5 5 5 5 6 6 6 6 5 6
9 8 8 9 7 5 11 11 15 13 10 16 14 7 4 7 14 16 15 16 17 15 14 15 14 15 14 13 14 13 14 18 20 21 20 20 19 18 19 19 20 20 18 17 18 19 19 18 17 17 17 19 19 18 18 16 15 14 14 13 12 11 11 11 11 11 11 10 10 9 8 8 9 11 10 8 8 8 8 7 7 6 5 4 4 5 5 5 5 5 6 6 5 5 6 7 7
9 8 8 9 8 6 9 10 15 13 10 15 15 8 4 4 12 16 16 17 16 14 15 16 15 15 15 13 13 12 13 16 18 20 21 21 20 19 19 20 20 20 19 17 17 19 19 19 18 18 18 18 19 18 18 17 16 15 14 13 12 12 11 11 11 10 10 10 9 8 8 7 8 10 9 7 7 7 7 7 6 5 4 3 4 4 4 5 5 5 5 5 5 5 6 7 7
8 9 9 9 10 8 8 10 13 14 11 15 16 11 5 3 10 15 15 17 17 14 15 16 15 14 14 13 13 13 13 14 15 19 22 21 20 19 19 19 20 20 20 19 18 18 19 19 19 18 18 18 18 18 18 17 16 15 15 14 13 12 12 11 10 10 10 10 9 8 8 7 6 7 8 6 6 6 6 6 6 5 4 3 4 4 4 4 4 5 5 5 5 5 5 6 7
10 11 9 8 9 9 10 10 12 16 14 14 16 14 11 5 9 12 14 16 16 15 14 14 15 15 15 14 14 14 14 15 15 19 23 22 20 20 19 19 20 20 20 19 19 18 18 19 18 18 18 18 17 17 18 17 16 15 14 13 13 12 12 12 11 10 10 9 9 7 7 7 5 6 8 7 5 5 5 6 6 5 4 4 4 4 4 3 3 4 5 6 5 4 5 5 6
13 12 10 10 9 9 11 9 13 18 14 13 15 14 14 10 9 11 13 14 14 14 13 13 13 14 14 14 14 14 15 15 16 20 23 22 21 20 20 19 20 20 20 19 20 19 19 19 18 18 19 18 17 17 17 17 16 15 15 14 14 13 13 12 12 12 11 10 9 7 7 7 7 8 9 7 5 5 5 5 5 5 5 4 4 3 3 3 3 4 5 5 5 4 4 4 4
13 12 12 12 10 9 12 11 13 17 13 12 15 14 14 13 9 10 11 13 14 14 14 13 13 14 14 15 15 15 16 15 17 21 22 23 22 21 20 20 20 20 20 20 21 21 21 20 19 19 18 18 18 17 17 16 16 15 15 15 15 14 13 13 13 13 12 11 8 8 8 7 8 11 9 6 5 5 5 5 6 6 5 4 3 3 2 2 2 3 4 4 4 4 3 3 2
13 13 11 11 11 9 12 10 11 16 12 10 14 14 14 14 10 8 11 13 14 15 15 15 15 15 13 15 16 16 14 13 15 18 21 23 23 22 22 20 21 22 22 22 22 22 22 21 20 19 18 18 19 19 17 16 17 16 15 15 15 15 14 14 14 13 12 11 8 9 9 8 9 11 9 6 6 6 6 7 7 6 5 3 3 3 2 2 3 3 4 3 3 3 3 2 2
13 12 10 10 11 8 9 9 10 13 10 8 12 13 12 13 12 10 12 13 12 14 15 15 16 15 14 15 16 16 15 14 15 17 20 24 24 24 23 21 22 22 22 22 22 22 22 21 21 20 19 19 19 19 18 17 17 16 16 15 14 14 14 13 13 12 11 11 10 9 10 10 9 9 7 6 6 6 7 7 7 6 5 3 2 3 3 3 4 4 4 3 2 3 3 1 1
13 12 10 10 11 9 8 9 12 13 10 8 10 10 10 11 13 12 13 14 12 13 15 15 15 15 16 16 15 16 17 16 16 17 19 22 24 25 24 23 23 23 22 22 23 23 22 22 21 21 21 20 20 20 20 18 17 16 16 15 14 13 13 12 12 12 12 11 11 11 11 11 9 7 7 7 6 7 7 7 7 6 4 3 2 3 4 4 4 4 4 3 2 3 2 1 0
15 16 13 11 11 12 11 10 11 11 10 9 9 8 8 11 14 13 12 14 14 13 15 15 15 15 15 16 16 17 17 16 17 18 18 19 23 25 25 24 23 23 23 23 23 23 22 22 22 22 21 21 20 20 20 19 18 16 16 16 15 14 14 13 12 12 12 12 12 11 11 11 10 9 8 7 7 7 8 8 7 6 5 4 3 3 4 4 4 4 3 3 2 3 2 1 1
15 17 17 15 12 13 15 13 11 9 9 9 10 8 8 10 14 15 12 13 15 15 16 17 16 16 16 16 17 17 18 17 17 18 18 18 22 25 26 25 24 24 24 24 23 23 22 22 22 23 22 21 21 20 20 20 19 18 17 16 15 15 14 14 13 12 12 11 11 10 9 10 10 9 8 8 8 8 9 10 9 7 5 4 3 3 4 4 4 3 3 2 1 1 2 2 2
12 15 18 19 15 13 15 15 12 9 8 9 11 9 8 8 12 14 14 15 16 16 17 19 17 16 16 16 16 17 17 17 17 18 19 19 21 24 25 26 25 25 25 24 23 23 23 22 22 23 22 21 21 21 21 21 19 19 18 17 16 15 14 13 13 12 11 10 10 9 9 9 9 9 9 10 10 10 10 10 10 8 6 4 4 3 4 4 3 2 2 2 1 1 0 2 2
11 13 18 20 16 13 14 15 13 10 8 8 11 10 8 8 10 11 13 15 16 17 19 19 18 18 19 18 18 18 18 18 17 17 18 19 21 23 25 26 27 27 26 25 24 23 23 23 22 23 23 21 21 21 22 22 21 19 19 18 17 16 15 13 12 12 11 10 10 9 9 9 9 9 10 11 11 11 11 11 9 7 5 4 4 4 4 4 3 2 2 2 2 2 1 2 2
14 13 14 17 17 15 13 13 12 11 10 9 12 12 9 9 9 8 11 14 15 17 19 19 19 21 21 20 20 20 19 19 18 17 18 19 21 24 26 27 27 27 26 25 24 23 23 23 23 23 23 22 21 22 23 24 23 21 19 19 18 17 16 14 13 12 11 11 11 10 10 9 10 10 10 11 11 11 11 10 8 7 5 5 4 5 4 4 3 3 3 2 2 2 2 2 2
13 10 11 14 16 15 13 12 11 12 13 12 13 14 10 9 9 9 10 12 13 15 16 18 20 21 21 21 21 20 19 17 18 18 18 19 23 25 26 26 27 27 26 25 24 23 23 23 23 23 23 22 22 23 24 25 25 22 21 20 20 18 16 15 13 12 12 12 12 11 10 10 10 11 11 11 11 11 11 9 8 7 6 5 5 5 4 4 4 4 3 3 2 2 2 2 2
11 8 10 12 12 12 11 10 9 11 13 13 15 16 12 10 10 9 10 12 13 13 12 13 17 20 21 20 20 20 19 17 18 18 18 20 24 26 26 26 26 26 26 26 25 24 23 23 23 24 24 23 22 23 25 25 25 24 23 22 22 20 18 16 14 14 13 13 12 12 11 10 11 11 11 11 12 11 10 9 8 8 7 6 6 5 5 5 4 4 3 3 3 2 2 2 2
12 8 11 10 8 8 8 8 8 11 11 12 16 17 15 11 10 8 10 14 15 12 11 12 15 19 20 18 19 19 19 18 17 17 17 19 21 23 25 25 25 26 26 26 26 25 24 23 23 24 24 23 23 23 25 25 25 25 24 23 22 21 20 18 17 16 16 15 14 12 12 11 11 11 11 11 11 11 11 11 9 8 8 7 7 6 6 5 5 4 4 4 4 3 3 3 3
13 11 12 11 8 8 9 9 9 10 11 12 16 18 15 12 11 11 10 12 14 12 12 11 11 14 17 18 18 17 17 18 17 16 16 17 17 19 22 24 25 26 26 27 26 26 25 24 25 25 25 24 23 23 24 25 25 25 24 23 22 22 21 20 19 18 18 16 14 13 12 12 12 12 12 12 12 12 12 11 11 10 9 9 8 7 6 6 6 5 5 5 5 5 4 4 4
14 13 12 11 11 10 11 11 9 10 12 14 15 14 12 10 11 14 15 14 14 13 13 13 10 10 13 17 18 17 18 18 17 16 16 17 16 17 21 24 25 25 27 28 27 26 25 24 25 26 25 25 24 24 24 25 26 25 24 22 22 21 21 21 21 19 18 16 14 14 14 13 13 13 13 13 12 13 12 12 11 11 10 9 8 8 7 7 7 7 6 6 6 6 6 6 5
14 14 13 13 12 11 10 10 10 10 10 13 14 11 10 9 7 9 13 14 14 13 13 12 10 9 10 13 16 17 18 18 17 17 18 18 18 20 22 24 25 26 27 28 27 27 25 24 25 26 26 26 25 25 25 25 26 25 23 22 22 22 21 21 20 19 17 16 15 14 14 14 13 13 13 13 13 13 13 12 12 12 11 10 9 9 8 8 8 8 7 8 7 7 6 7 6
13 14 14 13 13 12 10 10 12 11 10 11 12 8 8 9 6 5 7 9 10 12 12 11 11 11 10 11 14 16 16 18 18 18 19 19 20 22 24 25 25 26 27 28 27 27 27 25 25 27 27 26 26 26 26 26 25 24 23 23 22 23 22 20 19 19 18 17 16 15 15 14 13 13 14 14 14 14 13 12 13 13 12 12 10 10 9 9 9 9 8 8 8 7 7 7 7
10 13 15 13 14 15 12 11 13 13 12 11 10 8 9 10 9 11 13 13 13 13 12 13 13 12 12 12 13 15 16 17 18 18 18 19 20 22 26 26 26 27 27 28 28 28 29 27 26 27 27 26 26 27 27 26 25 24 24 24 24 23 22 20 18 18 18 17 16 16 14 13 13 14 14 15 15 15 14 13 13 13 13 12 11 11 10 10 9 9 9 8 8 7 7 8 8
9 11 15 13 12 13 12 11 11 12 13 10 11 13 12 11 10 11 16 18 17 16 15 15 13 12 14 14 14 15 17 17 18 19 18 19 20 22 26 28 28 29 28 29 30 30 30 29 28 28 27 28 28 28 28 27 26 25 24 25 25 24 22 20 19 19 18 18 18 17 15 14 14 15 15 15 15 15 15 14 13 13 13 13 12 12 11 10 9 9 8 8 8 8 7 8 8
15 10 12 13 11 11 11 11 11 13 13 10 14 16 13 12 10 9 13 15 15 16 16 13 12 12 14 14 14 16 16 16 17 17 17 18 19 21 25 28 28 30 29 29 30 29 29 29 28 28 29 29 29 27 26 27 26 25 23 24 25 23 22 21 20 19 19 19 19 18 16 15 15 16 16 16 15 15 15 15 14 14 14 14 13 12 11 11 10 9 8 8 8 8 9 9 9
19 13 10 12 11 10 11 10 9 12 12 11 14 16 11 10 11 12 13 12 11 11 10 9 10 11 13 12 13 14 15 15 16 17 17 18 20 23 27 29 29 30 29 29 29 29 29 28 28 28 28 28 28 27 26 26 26 24 22 22 23 24 24 24 22 22 22 21 20 18 16 16 16 17 17 17 17 17 16 16 16 15 14 14 14 13 12 11 11 10 9 9 9 9 9 10 10
16 14 12 12 11 9 11 12 11 11 11 10 12 13 10 8 10 14 15 12 11 10 10 10 10 12 12 12 12 12 14 15 16 16 17 19 19 22 27 29 29 29 28 28 29 29 29 29 28 29 28 27 28 28 27 27 26 24 22 23 23 24 27 26 24 25 25 22 20 19 18 17 18 18 18 18 18 18 17 16 15 15 14 14 14 13 12 12 11 11 10 10 10 10 10 10 10
15 13 13 14 11 10 12 13 13 13 12 12 12 12 10 7 7 11 14 15 14 14 14 13 13 15 13 11 12 12 13 15 16 17 17 17 17 19 23 26 27 28 28 28 28 28 29 29 28 28 29 29 29 29 28 26 24 24 24 25 25 27 29 27 25 26 25 21 19 21 21 20 19 19 18 19 18 18 16 15 14 13 13 13 13 13 12 12 12 11 11 11 11 11 11 11 11
Wind_Direction
167 166 172 200 216 245 238 232 231 183 171 83 85 101 85 82 108 115 113 123 115 89 69 89 90 87 93 89 101 91 39 17 32 66 97 100 119 120 123 124 126 129 132 138 144 145 144 152 158 148 142 139 136 140 139 135 133 132 131 132 138 140 136 132 131 130 127 125 123 121 117 112 107 101 97 93 90 87 84 82 78 77 74 71 67 63 60 55 50 45 43 39 38 36 35 33 31
176 182 202 221 222 252 239 186 242 112 113 90 82 81 97 116 121 111 109 101 86 99 104 95 91 90 94 97 111 105 54 43 66 85 91 110 119 115 125 126 125 130 134 139 143 146 145 148 153 150 145 142 140 144 144 140 136 135 135 137 140 143 143 138 137 133 128 125 122 119 116 113 110 105 101 98 95 90 87 83 79 78 74 71 66 62 58 54 49 43 40 37 37 32 31 29 29
184 190 211 234 229 236 249 210 225 85 91 88 87 89 114 116 104 97 95 89 94 118 117 112 107 91 128 126 93 67 79 79 96 102 107 126 124 119 129 125 125 131 133 137 142 142 143 148 150 148 145 147 147 147 147 145 141 139 138 141 143 146 147 144 141 137 132 128 122 119 115 113 111 108 104 101 98 92 87 83 80 77 73 70 64 60 55 50 47 43 39 36 34 29 24 24 26
186 197 214 254 245 224 252 209 77 75 87 86 94 98 106 98 98 97 99 105 116 129 122 123 105 45 88 111 79 75 97 99 103 108 119 128 123 126 132 127 126 130 133 135 139 137 142 150 149 146 147 153 155 151 149 150 146 142 141 141 143 146 148 148 144 140 136 130 124 119 116 113 113 111 107 101 96 90 85 82 79 75 70 66 63 56 50 46 39 35 33 30 28 24 17 18 21
180 202 227 262 283 314 298 110 56 62 75 74 98 99 98 101 110 112 113 120 132 132 125 132 104 83 73 69 66 102 104 109 110 108 113 118 122 131 134 130 128 131 135 135 138 136 146 154 151 147 149 156 159 153 150 153 151 145 143 143 144 146 149 150 146 140 135 131 127 122 119 116 116 112 105 98 91 86 82 81 78 75 71 65 60 52 44 38 30 22 23 23 20 18 8 9 14
182 207 225 251 292 342 293 105 71 73 54 38 96 104 105 113 121 123 125 125 129 123 124 126 109 118 94 61 62 88 103 119 117 112 116 123 130 135 134 131 128 130 133 136 138 136 147 157 155 152 152 158 159 155 155 156 153 148 146 148 148 148 149 150 146 139 133 132 130 126 124 121 118 113 104 95 86 84 84 81 77 74 71 64 54 48 38 30 26 20 19 17 14 10 360 1 3
192 209 214 236 243 247 282 78 65 79 56 18 86 110 115 121 130 133 136 133 130 130 131 121 121 120 107 99 85 79 97 111 118 119 123 130 135 136 135 133 128 129 132 136 136 137 148 156 159 159 157 159 159 157 160 158 153 150 150 152 153 151 147 146 144 138 134 134 135 133 132 128 123 115 104 93 86 86 85 81 78 75 69 61 48 40 32 26 26 21 17 12 10 2 352 355 353
203 224 237 247 211 197 64 76 61 67 78 49 77 99 112 125 140 147 146 144 139 140 140 139 146 116 111 128 105 102 109 104 113 119 127 134 136 136 135 134 131 132 133 133 135 141 150 153 159 165 161 159 161 161 160 158 152 150 151 151 152 150 145 144 143 139 137 138 138 139 138 134 127 116 103 92 88 86 84 79 76 74 66 57 44 36 30 26 25 19 12 5 2 355 348 350 347
206 236 258 262 241 120 79 85 84 73 90 91 86 96 114 133 151 155 148 140 136 140 139 147 169 122 124 125 107 119 119 114 120 124 131 134 135 135 134 135 134 133 132 132 135 142 149 152 157 163 161 160 162 162 159 156 152 151 154 152 151 149 146 145 143 141 142 143 143 143 143 140 131 117 103 96 93 89 86 77 72 70 61 41 26 20 16 14 16 10 3 356 352 352 349 347 345
206 235 263 264 277 103 95 84 93 88 89 93 98 115 129 141 156 161 152 136 136 136 128 139 153 125 127 120 110 122 123 128 131 131 135 133 135 135 134 136 135 135 133 133 136 141 149 153 154 156 158 159 161 160 157 156 153 155 156 154 152 149 148 147 145 146 148 148 147 148 147 144 133 120 109 106 101 95 87 74 67 50 24 6 359 1 4 0 359 356 354 348 343 346 345 343 343
219 196 259 265 76 71 83 86 95 97 101 104 106 124 136 141 157 158 148 138 139 131 129 147 135 126 126 118 105 114 128 138 137 135 137 135 136 137 137 136 136 137 135 137 138 140 148 152 150 151 154 155 158 156 155 158 158 158 156 155 155 152 151 149 149 151 151 148 148 150 146 142 132 125 119 113 105 98 87 72 29 352 356 351 353 358 360 360 357 351 346 341 338 342 342 342 341
244 175 240 267 76 61 63 86 99 104 115 123 120 133 145 149 159 151 149 144 144 140 145 156 137 135 131 123 118 129 141 144 139 138 138 138 139 139 138 137 138 137 137 139 140 142 147 150 149 151 154 153 154 154 156 161 161 159 156 156 157 156 154 152 152 150 148 146 144 143 139 137 131 127 121 114 107 100 94 74 316 321 338 343 348 355 359 2 1 352 344 343 342 346 348 349 348
252 217 240 293 64 77 69 79 104 121 126 123 126 139 151 161 166 150 152 149 151 150 145 142 142 145 126 121 133 143 149 145 142 142 141 143 142 143 141 139 140 137 139 140 140 144 146 148 148 153 155 153 154 156 158 161 159 157 156 157 158 158 157 153 152 150 148 144 140 139 136 134 129 125 119 112 109 110 124 268 309 311 323 337 342 350 359 360 3 2 352 353 354 356 359 0 359
249 290 284 262 83 105 87 89 123 141 120 117 129 140 157 163 153 150 156 151 147 136 128 139 150 143 125 128 142 153 154 148 146 145 145 145 143 145 143 142 140 138 140 141 142 143 145 147 149 153 155 156 158 159 161 161 159 159 159 159 161 160 158 156 153 153 149 143 142 142 141 139 133 129 126 123 128 140 156 278 290 303 318 331 339 346 356 356 3 4 358 5 2 2 8 6 2
248 292 278 259 194 129 111 110 122 113 109 127 140 145 154 126 136 162 165 152 127 113 123 144 161 144 146 153 155 158 154 151 150 147 147 145 145 146 145 144 141 141 143 143 145 146 148 148 149 153 156 158 159 162 163 164 164 163 163 162 163 163 161 159 157 156 151 149 150 149 150 146 140 138 135 137 158 181 150 270 280 301 318 327 339 346 353 357 5 5 4 10 1 5 10 1 359
241 266 252 252 205 144 142 136 110 102 117 136 145 151 151 128 162 159 131 132 122 137 148 154 166 151 159 160 151 152 152 151 151 148 147 146 147 147 149 150 145 145 147 148 151 151 152 150 150 154 157 159 160 163 163 164 166 164 165 166 166 166 166 164 162 162 159 160 160 157 154 143 142 143 135 145 206 240 223 257 283 308 317 329 344 345 346 358 10 9 5 3 357 3 2 352 355
226 256 241 220 201 167 140 145 98 91 124 142 152 162 155 139 170 142 104 164 144 155 164 147 145 149 155 144 143 148 150 152 152 151 150 151 151 153 156 156 153 151 152 157 159 158 158 155 156 157 160 163 161 162 162 164 166 167 169 171 172 172 173 173 172 171 168 171 171 164 154 145 152 156 147 173 237 276 274 275 292 313 324 341 353 346 344 2 11 3 355 355 352 351 354 353 353
199 249 240 168 143 130 131 147 109 103 135 151 160 168 162 151 167 156 159 173 153 158 157 142 128 116 128 130 140 146 151 154 157 156 154 158 159 159 161 162 162 160 159 163 164 164 162 160 161 161 164 165 165 163 164 167 168 170 173 174 177 178 179 180 177 175 174 176 177 169 161 167 168 170 178 192 224 257 283 293 303 316 332 348 353 349 352 6 7 356 350 349 346 352 5 6 351
197 240 241 192 78 87 121 153 148 146 144 152 164 170 167 157 162 167 177 168 159 166 157 154 138 122 127 133 143 148 154 158 161 162 160 163 165 164 165 165 167 165 166 167 167 169 166 166 165 164 165 167 168 167 168 168 169 173 175 175 176 179 181 181 178 177 179 178 179 176 177 187 183 190 206 213 234 261 289 299 308 318 334 346 347 355 359 4 6 356 351 350 352 3 15 5 357
214 238 249 163 101 44 165 176 174 166 148 157 167 170 169 159 159 175 185 169 175 182 164 168 158 141 142 143 148 152 158 162 165 168 165 167 169 169 167 167 171 170 170 170 168 170 170 171 170 169 169 169 171 172 173 170 171 176 177 177 177 179 182 182 183 182 184 184 182 186 190 195 198 211 224 237 247 258 288 298 310 320 330 338 345 356 354 357 6 358 351 353 354 354 353 351 357
214 220 253 155 88 272 205 191 186 172 160 163 164 169 170 161 163 181 187 176 187 193 175 176 166 153 151 149 154 158 162 165 169 172 170 170 173 172 171 172 174 171 172 172 171 172 174 176 174 174 173 176 179 178 178 175 176 179 180 181 181 182 184 186 189 188 190 191 191 198 202 203 210 219 226 237 238 221 253 287 306 316 321 331 342 347 335 341 355 347 339 343 331 319 323 337 343
229 213 245 258 293 281 198 192 190 177 171 166 165 172 165 162 175 186 189 186 186 186 179 179 165 156 156 155 157 161 165 168 172 176 174 174 175 175 174 175 176 174 177 178 176 175 177 179 178 179 179 183 187 185 183 180 181 184 185 186 187 188 188 190 193 193 195 196 200 207 211 213 218 226 230 234 238 236 233 250 263 273 306 320 326 317 307 321 330 322 320 320 314 308 306 314 323
237 221 233 245 252 267 264 198 187 179 183 176 171 170 160 170 183 187 195 184 96 167 173 168 161 158 158 157 159 164 169 171 173 178 177 176 178 178 177 178 180 179 182 183 181 180 180 183 183 183 185 188 191 190 188 187 188 190 190 191 193 194 194 197 198 198 200 201 206 212 218 222 224 229 232 237 242 247 243 240 236 230 258 278 280 285 292 302 305 310 314 309 307 302 296 299 303
228 233 225 230 232 238 244 209 185 189 194 180 168 167 170 183 179 180 198 174 76 151 162 155 156 159 161 161 165 167 170 173 175 178 180 180 181 182 180 180 182 182 185 187 186 185 185 186 186 188 189 191 193 194 194 194 194 195 195 198 199 200 200 205 206 204 206 208 212 216 222 227 231 234 234 240 245 247 250 247 246 246 250 256 265 275 282 289 295 304 309 307 303 296 293 293 296
222 237 232 228 231 235 237 215 192 196 199 176 170 176 180 186 172 175 194 171 122 152 150 151 155 159 166 167 168 169 171 175 176 178 180 181 183 184 184 183 185 186 187 189 188 189 190 189 189 191 191 193 195 196 200 200 199 201 202 203 204 206 208 211 212 212 214 215 217 218 223 230 235 240 241 244 249 251 254 252 254 259 265 271 274 277 278 283 287 292 301 302 298 292 291 291 298
215 230 240 237 238 241 237 221 200 197 194 175 177 183 180 179 168 177 186 164 140 152 151 155 158 163 170 172 171 170 173 177 176 179 180 182 185 187 189 187 188 191 190 189 190 190 191 191 192 193 194 195 197 199 204 205 206 208 208 209 209 211 214 216 217 219 221 221 221 219 221 229 238 244 245 248 253 256 257 258 261 263 268 274 279 282 281 282 285 290 295 296 293 291 290 293 303
221 231 244 248 255 251 236 222 203 197 187 179 183 184 173 170 180 189 173 158 152 156 159 161 163 168 173 174 174 173 176 179 178 179 181 184 187 190 192 191 192 192 191 191 192 192 192 193 194 195 196 198 200 203 206 207 210 212 213 213 213 215 217 218 220 223 225 226 224 221 222 227 235 245 250 254 257 261 261 260 261 263 269 274 279 283 280 283 290 292 290 291 293 290 288 296 305
249 236 243 241 257 247 226 217 199 190 183 184 187 178 166 168 200 201 158 159 165 162 164 167 170 172 174 176 174 175 181 182 180 180 183 185 188 191 192 193 193 192 192 193 192 192 193 194 195 196 198 200 203 207 207 209 212 214 217 216 217 219 219 220 223 225 226 229 229 225 228 230 235 244 254 261 264 265 263 261 259 260 266 270 274 275 275 282 288 289 287 288 290 288 290 298 303
233 229 242 224 234 231 211 205 190 182 179 180 175 168 179 189 206 187 151 161 167 167 169 170 175 175 176 178 175 178 184 183 184 186 188 188 189 192 194 194 193 193 194 194 194 194 195 196 196 198 200 201 205 209 209 212 213 214 217 218 220 221 222 224 226 228 228 230 230 230 232 235 238 244 253 263 266 265 262 261 260 258 260 264 267 268 273 281 283 284 284 284 286 287 293 298 300
225 225 243 227 222 218 196 190 182 181 178 172 171 187 202 200 202 174 153 166 168 171 177 175 179 178 179 182 179 181 184 184 188 192 192 191 193 195 197 196 195 196 195 194 196 197 196 196 197 199 201 202 205 209 212 213 213 215 217 219 221 222 224 226 228 231 232 230 231 232 232 234 239 242 252 262 263 265 263 260 259 253 250 254 262 269 277 281 280 281 279 284 290 291 299 305 305
221 220 233 233 236 196 173 180 178 179 171 172 190 227 208 185 186 171 160 170 173 178 182 180 182 180 182 184 184 185 182 187 191 193 194 192 194 196 197 197 196 197 196 196 197 197 197 196 197 199 200 202 204 208 212 214 215 216 218 219 222 222 224 228 231 233 231 232 233 230 229 231 241 252 259 262 260 264 261 256 256 247 245 253 264 271 274 276 277 276 278 287 294 296 305 304 301
215 219 217 220 233 169 160 181 186 180 163 179 204 236 221 171 167 169 169 174 179 187 185 183 186 183 185 186 189 190 183 189 194 195 196 195 195 196 196 196 195 198 198 197 196 196 199 197 197 199 200 201 204 208 211 215 218 219 220 221 222 223 226 230 233 234 234 234 233 232 228 227 244 259 264 260 253 258 257 254 250 245 253 261 263 263 264 273 275 271 275 286 293 298 303 301 301
209 222 226 211 210 181 164 183 193 185 162 181 206 224 229 166 158 167 175 178 182 193 190 187 189 186 186 187 190 192 185 189 195 197 197 196 197 196 196 196 196 198 198 198 196 195 199 199 200 203 203 202 204 208 211 215 219 221 223 223 225 225 227 232 234 236 237 235 236 237 227 226 246 263 270 263 248 250 253 254 252 249 250 249 257 259 257 267 268 267 271 274 284 293 299 303 306
203 215 233 221 209 203 175 175 192 190 175 186 204 221 233 140 156 172 179 183 186 195 196 191 192 190 189 190 191 191 189 191 196 197 197 196 197 196 196 196 197 198 198 199 198 197 200 201 203 206 208 207 206 208 211 214 217 221 224 225 227 228 229 234 234 235 235 234 237 233 230 238 244 255 269 259 235 239 243 248 256 255 244 238 252 252 249 261 259 262 268 270 278 289 297 304 310
208 207 223 225 215 216 194 175 184 190 190 194 200 217 227 184 162 178 184 188 193 198 199 196 194 193 191 192 194 192 192 196 196 195 195 195 196 195 196 196 197 198 199 200 201 201 202 204 207 207 210 210 207 208 210 213 215 219 223 224 226 227 229 231 230 232 233 234 234 225 233 245 231 239 263 261 244 240 235 240 250 248 243 234 232 236 248 266 268 272 275 278 280 280 289 298 304
217 212 219 226 216 212 206 189 183 187 194 202 202 214 223 208 178 182 187 190 199 204 201 202 199 196 195 195 197 195 195 198 194 194 194 193 194 194 195 196 197 199 199 200 201 202 203 204 207 207 208 208 206 206 207 210 213 216 219 221 223 224 226 228 228 232 233 235 233 223 228 234 236 251 264 271 267 251 241 247 242 231 232 223 215 234 261 279 294 293 283 281 280 276 275 280 297
223 219 221 231 231 212 200 197 187 186 196 205 207 217 224 222 205 188 188 189 200 208 206 207 205 201 200 199 200 198 199 200 192 192 194 195 195 194 194 196 197 198 200 200 201 203 204 204 206 207 206 205 205 206 207 209 210 212 214 218 221 222 224 227 230 232 235 238 231 223 225 224 244 261 264 262 252 237 231 230 220 211 210 201 202 231 254 272 285 278 273 273 271 276 274 271 303
225 226 225 228 238 217 185 188 188 191 205 208 207 222 227 229 223 195 191 196 201 208 209 210 208 206 205 203 204 201 202 201 192 190 193 196 197 196 196 197 198 199 199 201 202 204 205 206 207 207 206 205 207 209 209 210 211 213 215 218 224 226 227 230 235 236 238 240 231 228 234 232 249 261 256 240 230 225 219 211 204 195 185 182 205 230 240 246 246 240 250 258 257 271 278 285 316
224 230 231 226 233 213 171 179 192 196 212 211 205 223 231 227 228 213 203 204 205 209 212 213 210 209 208 207 207 205 203 200 195 191 192 196 199 199 199 200 201 202 201 202 203 205 206 207 209 209 209 209 210 210 211 213 214 216 219 223 228 232 234 236 240 242 240 240 236 235 240 239 247 254 240 225 219 217 211 200 192 185 182 191 217 242 250 245 238 226 229 241 255 258 252 266 337
226 228 230 229 222 204 183 188 195 199 213 227 216 223 237 233 230 225 216 213 213 211 214 216 214 213 211 209 209 207 204 200 196 194 194 196 198 200 201 201 202 203 203 203 204 205 206 207 208 209 210 212 212 212 213 215 215 216 221 226 231 236 240 242 244 245 242 241 240 238 240 238 237 235 229 223 217 211 203 193 190 191 198 212 227 256 258 245 235 221 213 216 253 268 262 263 349
224 227 228 233 217 203 205 193 189 201 212 228 227 227 240 235 230 229 222 217 215 212 212 214 215 215 215 213 211 211 208 202 198 198 198 196 198 200 201 201 202 202 204 204 204 204 205 207 207 207 209 211 213 213 213 214 215 216 220 224 230 235 240 241 240 242 238 236 238 236 234 233 231 229 226 222 213 208 204 197 195 204 217 227 238 256 253 241 234 224 217 216 244 278 296 303 294
222 223 225 235 227 211 210 194 185 208 214 211 216 231 243 229 231 234 227 219 215 211 211 211 211 211 213 214 213 212 211 206 201 201 201 199 199 199 200 201 202 203 204 205 205 205 204 205 205 206 208 210 212 213 212 213 214 217 219 221 224 227 231 232 232 235 236 233 235 234 229 228 228 225 222 218 210 206 206 203 205 214 224 231 239 247 243 237 233 228 227 233 230 246 298 297 276
224 215 217 230 233 223 215 199 193 218 222 202 205 233 253 238 233 232 227 224 215 210 212 211 207 207 209 212 212 211 212 209 204 204 205 203 200 199 200 201 202 205 205 204 205 205 204 204 204 205 208 209 210 210 211 213 214 217 220 221 222 223 225 227 227 232 235 232 232 231 228 226 221 217 217 216 209 205 204 207 212 216 221 231 236 242 245 244 240 229 229 227 202 175 220 285 282
227 214 211 219 225 226 217 203 206 228 232 211 209 225 248 250 242 232 227 225 215 211 215 213 207 206 207 208 210 210 210 209 206 205 206 205 201 200 200 200 202 206 205 203 204 205 204 204 203 205 208 209 209 207 209 213 215 217 220 221 222 224 225 225 224 226 229 229 228 227 225 221 214 212 215 214 209 206 206 210 215 213 219 235 241 246 249 249 249 240 232 211 191 192 205 257 284
230 227 214 211 217 223 221 211 216 229 233 228 218 218 238 250 242 231 223 220 217 217 219 216 211 208 207 208 209 209 209 209 208 206 206 205 202 200 200 200 201 205 205 203 203 204 204 204 203 204 206 208 207 205 208 213 216 217 219 219 221 223 224 225 224 222 221 223 224 223 220 215 212 212 215 214 211 209 211 214 213 210 221 238 240 242 241 240 246 245 245 229 210 218 214 238 262
226 233 215 209 217 222 224 223 222 224 226 229 218 210 227 253 237 218 216 218 224 227 224 218 214 210 208 207 207 207 207 207 208 208 206 204 203 201 200 199 200 203 204 203 202 203 203 203 202 203 204 206 206 205 207 213 215 216 217 218 218 220 221 222 224 222 219 220 221 220 217 216 217 216 213 213 214 214 213 212 211 216 228 235 232 235 234 231 236 237 242 240 233 232 218 229 250
214 217 211 211 218 222 228 227 230 233 225 225 226 213 213 244 243 215 208 218 228 232 229 222 216 212 210 207 206 205 204 203 205 207 206 204 203 201 200 199 199 200 201 201 201 201 202 201 201 202 203 204 203 203 206 210 212 214 216 217 217 218 218 217 220 221 219 217 219 219 218 219 220 217 214 213 214 213 210 210 215 220 221 220 220 226 229 228 226 221 223 229 230 234 231 230 244
213 212 211 210 207 213 226 222 226 240 229 222 232 224 213 232 248 227 207 217 232 240 236 229 218 211 208 206 206 204 202 201 201 204 205 203 202 201 199 198 196 195 195 197 198 199 201 201 200 201 202 202 200 201 204 207 210 213 215 216 217 218 218 218 219 219 218 216 217 216 217 219 219 218 216 215 213 210 206 207 211 212 208 208 211 215 222 224 221 213 206 214 216 220 234 237 239
214 217 213 208 202 203 216 216 215 232 233 226 231 228 219 228 244 245 231 221 229 239 242 246 236 217 206 202 204 203 202 200 198 200 203 201 200 200 198 195 192 191 191 194 196 198 199 199 199 201 202 200 199 200 202 204 208 211 213 215 217 218 219 220 221 221 219 216 214 212 214 218 218 217 215 215 213 206 202 202 203 205 204 203 206 210 216 217 214 210 205 207 211 215 228 235 239
209 212 209 207 209 210 213 218 217 224 230 228 228 230 230 233 237 240 242 237 234 241 249 256 256 234 211 202 201 201 201 200 197 197 198 200 200 197 196 195 191 190 191 192 195 196 197 197 198 201 202 200 199 199 201 203 207 210 211 212 214 216 217 219 221 223 221 216 214 214 217 220 221 221 218 212 205 198 196 199 200 203 202 201 204 208 211 212 210 210 208 207 212 216 223 231 239
208 211 215 216 216 219 218 216 219 223 227 221 215 218 229 234 231 227 236 241 241 248 254 251 243 232 218 206 201 200 200 199 197 195 196 197 195 193 195 195 192 192 192 193 194 195 195 196 196 199 201 199 198 199 201 203 207 209 209 210 211 212 215 216 217 220 220 214 212 214 217 220 221 222 214 202 193 191 194 199 201 202 201 200 203 206 209 210 209 210 211 212 215 216 220 229 239
206 212 220 220 218 224 230 231 230 228 229 223 211 210 228 238 239 217 225 239 242 249 253 243 232 222 215 209 205 203 201 199 197 196 195 193 190 190 193 194 194 194 194 194 194 193 194 195 196 198 200 199 198 199 202 205 207 208 208 208 209 210 212 213 213 216 217 212 210 212 212 213 213 208 199 192 190 192 196 200 201 201 199 200 203 205 208 209 210 213 215 215 217 217 220 230 241
197 208 220 222 222 228 233 236 235 232 232 230 215 213 227 236 240 232 234 245 246 246 244 237 229 216 210 209 206 205 203 200 198 197 195 190 188 190 192 193 194 194 195 196 193 192 194 195 195 197 198 198 198 200 204 205 205 206 207 207 208 209 209 209 210 212 212 209 210 212 210 207 205 199 193 191 191 193 197 199 200 201 201 201 204 205 208 210 210 215 219 219 221 223 227 234 243
205 207 213 216 226 235 237 232 225 225 231 232 223 221 222 227 235 232 234 241 243 243 245 241 228 210 210 212 206 205 204 201 200 198 195 192 189 190 192 194 194 193 194 194 193 193 194 195 196 196 196 197 199 201 203 204 205 206 206 206 208 208 207 207 208 209 209 209 211 211 207 202 200 198 195 193 192 192 195 196 199 202 202 203 205 206 208 208 209 216 223 226 228 231 235 239 243
225 225 209 209 218 221 226 229 223 224 229 233 232 231 226 226 230 219 218 226 230 232 239 242 228 211 212 215 208 205 203 201 201 199 196 195 194 193 193 194 195 194 193 192 193 193 194 196 197 197 197 198 200 201 202 204 205 205 205 206 206 205 205 205 206 207 208 210 210 208 204 200 197 198 195 192 193 194 194 194 197 202 203 205 207 208 209 207 208 217 225 232 234 234 238 241 244
223 233 218 215 222 217 217 224 228 231 234 234 236 236 227 224 230 223 213 212 218 225 231 240 239 228 220 215 208 202 198 200 201 199 198 198 199 198 195 195 195 193 191 192 194 195 197 197 196 198 199 197 199 201 201 203 204 204 203 203 202 202 206 208 207 208 211 213 210 205 202 200 198 198 194 191 195 197 196 195 196 200 203 205 208 210 211 209 210 218 228 237 240 237 238 242 245
207 218 218 214 215 218 224 224 223 231 238 236 237 240 230 213 222 226 222 219 225 241 253 255 258 254 237 219 210 201 196 199 199 200 201 201 202 201 198 196 194 191 191 193 195 197 199 198 197 198 197 196 200 202 201 203 202 201 200 199 198 203 210 211 208 212 216 213 206 204 203 200 199 198 194 193 196 198 198 198 196 199 203 207 210 213 213 213 215 221 229 238 243 241 241 244 245
202 203 214 216 211 212 224 226 222 225 235 237 238 245 238 214 203 213 224 231 232 238 250 253 257 261 252 226 211 202 196 198 198 200 203 203 203 203 199 196 193 191 191 194 197 198 199 200 199 198 196 198 201 202 202 201 198 197 199 199 200 207 214 211 206 210 213 207 202 206 209 206 201 197 194 196 198 196 196 200 200 201 206 210 214 217 218 219 220 224 230 237 242 243 242 244 245
Height
773 774 773 774 773 774 773 775 789 778 769 788 786 786 789 780 780 786 790 788 789 789 782 782 783 787 793 796 799 802 805 805 808 820 825 812 808 813 813 815 817 818 821 823 824 825 827 829 830 830 831 831 833 834 835 836 837 838 838 840 840 842 842 843 844 845 846 847 848 848 849 849 850 851 851 852 852 853 853 853 853 853 853 853 853 853 853 853 853 853 853 853 853 853 853 853 853
773 774 773 774 771 776 772 771 790 780 778 798 788 786 788 778 782 789 791 789 789 788 781 783 786 788 790 790 792 798 805 804 801 806 809 807 810 813 813 816 817 819 821 823 824 826 828 829 831 831 831 832 834 835 836 837 838 839 840 841 842 843 844 845 846 847 847 848 849 850 850 850 851 852 852 853 853 854 854 854 854 853 854 853 854 854 854 854 854 854 854 854 854 854 853 853 853
773 774 772 774 769 770 767 768 786 785 791 804 795 787 782 783 787 787 787 786 786 783 783 786 789 790 790 795 796 800 809 804 800 803 806 809 810 812 815 816 818 821 822 824 825 826 828 829 831 831 832 834 835 836 837 838 838 840 841 842 843 844 845 846 847 848 848 850 850 851 851 852 853 853 854 854 855 855 855 855 854 854 854 854 855 855 855 855 855 854 854 854 854 854 853 853 853
772 773 771 771 769 768 768 773 777 781 795 800 799 789 780 787 788 787 785 784 783 781 786 788 793 791 789 801 800 801 809 805 803 804 807 810 811 814 816 817 819 821 823 825 826 827 828 829 831 832 834 834 836 837 838 838 840 841 842 843 844 845 846 847 848 849 849 850 851 852 852 853 854 854 855 855 856 856 856 855 855 855 855 856 856 856 856 856 856 855 855 855 854 854 853 853 853
772 773 770 770 773 772 771 774 772 780 792 789 796 792 782 786 786 788 785 784 783 782 787 788 797 793 790 799 797 804 810 806 805 804 808 812 813 816 816 819 820 822 824 825 827 828 829 830 831 833 834 835 836 838 839 840 841 843 844 845 846 846 847 848 849 849 851 851 852 853 853 854 855 855 856 856 856 856 856 856 856 856 856 857 857 857 857 857 856 856 856 855 855 854 854 853 853
772 772 769 768 769 771 775 780 779 786 786 777 789 791 782 783 784 788 786 785 783 782 785 786 794 795 798 799 794 802 805 805 807 806 810 813 815 817 818 820 821 823 825 826 828 829 830 831 832 834 835 836 837 838 840 841 842 844 845 846 847 847 848 849 850 850 851 852 853 854 854 855 856 856 856 857 857 857 857 857 857 856 857 857 857 858 857 857 857 857 856 856 856 855 855 854 854
770 772 769 772 771 770 780 784 784 789 784 774 781 785 782 782 782 786 789 789 789 786 786 787 788 794 805 801 801 805 802 805 806 808 812 814 817 818 819 821 822 824 825 827 829 830 831 832 833 835 836 837 838 839 841 842 844 845 846 847 848 848 849 850 850 851 852 853 854 854 855 856 856 857 857 857 857 857 857 857 857 857 857 858 858 858 857 857 857 857 857 856 856 856 855 855 854
769 772 768 777 780 773 779 785 786 786 783 776 775 779 780 781 781 785 789 790 793 790 789 789 785 798 807 798 808 809 804 808 807 811 814 815 818 818 821 821 823 825 827 828 829 831 832 833 834 835 837 838 839 841 842 843 844 845 847 847 849 849 850 851 851 852 853 854 854 855 856 857 857 857 858 858 858 857 857 857 857 857 858 858 858 858 857 857 857 857 857 857 857 856 855 855 854
767 771 770 778 781 777 782 786 788 785 782 779 777 780 779 779 780 783 788 788 789 790 791 789 785 800 806 801 811 809 806 811 810 814 815 817 819 819 822 822 824 825 827 829 830 832 832 834 835 836 838 839 840 842 843 844 845 846 848 848 849 850 850 851 852 853 853 854 855 856 857 857 858 858 858 858 858 858 857 857 857 858 858 858 858 858 858 858 858 857 857 857 856 856 856 855 854
768 771 774 779 779 783 787 787 788 786 783 779 779 781 780 780 780 783 786 789 788 790 790 786 787 797 802 807 812 807 809 812 812 816 816 818 819 821 822 823 825 826 828 829 831 832 833 835 835 838 839 840 842 842 844 844 845 847 848 849 850 850 851 852 853 854 854 855 856 857 857 858 858 858 859 858 858 858 858 858 858 858 858 859 858 858 858 858 858 858 857 857 856 856 855 855 854
774 771 772 781 785 789 790 789 789 786 783 779 780 779 778 779 781 784 785 788 787 790 791 788 795 798 801 809 811 808 810 812 813 816 817 819 821 822 823 824 826 827 829 830 832 833 833 835 837 839 840 842 843 843 844 845 846 847 848 849 850 851 852 853 854 855 855 856 856 857 858 858 858 858 859 859 859 858 858 858 858 859 859 859 859 859 858 858 858 858 857 857 856 856 855 855 854
779 775 774 787 789 790 787 788 789 786 785 783 784 779 775 778 783 787 787 790 788 792 792 789 794 795 804 812 811 810 810 812 813 815 818 820 821 822 823 825 826 828 830 831 832 833 834 836 837 839 840 842 843 844 845 846 847 848 849 850 850 852 852 854 854 855 856 857 857 858 858 858 859 859 859 859 859 859 859 859 858 859 859 859 859 859 859 858 858 857 857 856 856 855 855 854 854
777 774 778 789 783 785 787 788 788 787 788 784 783 778 774 780 785 785 786 790 789 794 792 786 787 791 805 811 809 810 810 812 814 816 818 820 821 823 824 825 827 829 830 832 833 834 835 836 837 839 840 842 843 845 845 847 848 848 850 850 851 852 853 854 855 856 857 857 858 858 859 859 859 859 859 859 859 859 859 859 858 858 858 859 858 859 859 858 858 857 856 856 856 855 855 854 853
770 768 776 789 780 782 787 789 789 787 789 781 778 777 776 780 781 780 783 792 792 791 787 781 783 793 806 810 812 811 809 813 814 817 818 820 822 823 825 826 828 829 831 832 833 834 835 837 838 839 840 842 843 844 846 847 848 849 850 851 852 853 854 855 856 857 857 858 858 858 859 859 859 859 859 859 859 859 859 859 858 858 858 858 858 858 858 858 857 857 856 856 855 855 854 854 853
765 765 773 786 784 784 785 788 786 785 787 779 777 777 778 779 777 780 781 789 792 783 783 783 782 795 805 809 813 807 806 813 814 817 818 821 822 823 826 826 829 830 832 833 834 835 836 837 838 839 841 842 844 845 846 847 848 849 850 852 852 853 855 855 856 857 857 858 858 859 859 859 859 859 859 859 859 859 859 859 858 858 858 858 858 858 858 858 857 857 856 856 855 855 854 854 853
760 764 776 787 788 789 785 782 783 786 784 776 775 775 782 782 775 782 778 779 789 783 784 789 786 792 796 798 803 800 805 812 814 817 819 821 823 824 826 827 829 830 832 833 834 836 836 838 838 840 842 843 844 845 846 847 848 849 850 852 852 854 855 855 856 857 857 858 858 859 859 859 860 860 860 860 859 859 859 859 858 858 858 858 858 858 858 858 857 857 856 856 855 855 855 854 853
759 768 782 789 789 788 782 781 784 784 779 775 775 775 784 788 778 779 776 776 787 788 786 789 787 787 789 791 795 799 806 811 814 817 818 821 822 824 826 827 829 830 832 833 834 836 836 838 839 840 842 843 844 845 847 847 848 849 851 852 852 854 854 855 856 857 857 858 858 858 859 860 860 860 860 860 860 859 859 859 858 859 859 858 858 858 858 858 857 857 857 856 856 855 854 854 853
769 782 786 788 786 780 774 774 774 772 774 776 776 775 781 788 785 779 781 784 787 790 789 788 789 787 788 791 796 801 807 811 813 815 817 820 821 822 824 826 828 829 831 833 834 836 837 838 839 841 842 843 844 845 846 847 848 849 850 851 852 853 854 855 856 857 857 857 858 858 859 860 860 861 860 860 860 859 859 859 859 859 859 858 858 858 857 857 857 856 856 856 856 855 854 854 854
775 783 783 782 777 768 761 763 765 765 770 773 774 774 777 783 783 780 787 792 790 794 794 791 794 793 792 794 798 803 807 810 812 814 816 818 819 821 822 825 827 828 830 832 834 835 837 839 839 841 842 843 844 845 846 847 848 849 850 851 852 853 854 855 856 856 857 857 858 858 859 859 860 860 860 860 860 860 859 859 859 858 858 858 857 857 857 857 856 856 856 856 855 855 855 855 855
768 772 780 775 764 761 757 758 761 760 763 771 775 773 775 778 777 780 787 791 792 794 794 794 798 798 797 796 799 803 806 809 811 813 815 817 818 819 821 824 825 828 830 831 833 836 837 838 839 841 842 843 844 844 845 846 847 849 850 851 852 853 854 854 855 856 856 857 857 858 859 859 859 859 860 860 860 861 859 857 858 858 858 858 857 857 857 857 857 856 856 856 856 855 856 855 855
762 766 776 765 757 763 758 754 756 755 758 767 772 774 778 775 774 780 784 792 796 789 786 788 792 795 796 796 798 802 805 807 810 812 813 816 818 819 821 823 826 828 829 831 833 835 836 837 839 840 841 842 843 844 845 846 847 848 849 850 851 852 853 854 854 855 856 856 857 857 858 858 859 859 859 860 860 862 860 858 858 858 857 858 858 858 858 858 857 858 857 857 856 856 856 855 855
762 764 763 755 756 764 756 750 754 754 757 763 771 776 777 773 776 779 782 791 790 780 777 779 782 788 791 794 797 800 803 806 808 810 812 815 817 819 822 824 826 828 829 831 832 833 835 837 838 839 840 841 842 844 845 846 846 847 849 849 850 851 852 853 854 854 855 856 856 857 857 858 858 858 859 859 860 861 861 861 860 859 858 858 858 859 859 858 858 858 858 857 857 856 855 855 854
766 764 755 753 755 759 754 749 752 754 759 765 769 770 769 775 780 777 778 782 777 769 770 773 778 783 787 791 795 799 802 804 807 809 811 814 817 818 821 823 825 827 829 830 831 833 834 835 837 838 840 841 842 843 844 845 846 847 848 848 849 850 851 852 853 854 854 855 856 856 857 857 858 858 858 859 859 860 860 860 860 860 860 859 859 859 859 858 858 858 858 857 857 856 855 855 854
765 765 755 752 752 754 752 748 752 754 759 761 761 764 770 779 780 776 777 775 771 768 767 771 777 781 786 790 794 797 800 803 805 808 811 813 816 817 819 821 823 825 827 829 830 832 833 834 836 837 839 840 841 842 843 844 845 846 847 848 849 850 851 851 852 853 854 854 855 856 856 857 857 857 857 858 858 858 859 859 859 860 859 859 859 859 859 858 858 857 857 857 856 856 855 855 854
761 762 754 750 750 750 747 747 752 754 756 756 759 767 771 773 772 776 777 772 771 769 769 773 777 782 786 790 793 796 799 802 804 807 810 813 815 817 819 821 822 824 825 827 829 831 832 834 835 837 838 839 840 841 842 843 844 845 846 847 848 849 850 851 852 852 853 854 854 855 855 856 856 856 857 857 858 858 858 858 858 859 859 859 858 858 858 858 857 857 857 857 856 856 855 855 854
754 754 751 749 750 747 746 749 751 754 753 755 764 771 769 765 769 778 774 770 772 770 773 776 779 785 787 790 792 795 799 801 803 806 809 812 814 816 818 819 821 823 824 826 828 830 831 833 834 836 837 838 839 840 841 842 843 844 845 846 847 848 849 850 851 852 852 853 853 854 855 855 856 856 856 857 857 857 857 857 858 858 858 858 858 857 857 857 857 856 856 856 856 856 855 854 854
744 748 748 748 750 746 747 750 750 752 753 756 766 772 768 764 773 783 773 768 772 772 777 778 781 786 787 789 791 794 798 798 801 805 807 810 812 814 816 818 820 821 824 825 827 828 830 832 833 835 836 837 838 839 840 841 842 843 844 845 846 847 848 849 850 851 851 852 853 853 853 854 855 855 856 856 856 857 857 857 857 857 857 857 857 857 857 857 856 856 856 856 856 855 855 854 854
742 748 751 751 751 749 749 751 750 752 757 756 760 769 770 770 778 778 769 768 772 775 779 780 782 786 786 789 791 794 796 797 800 802 805 807 809 811 813 815 817 820 822 823 825 827 828 830 832 834 835 836 837 838 839 840 841 842 843 844 845 846 847 848 849 850 850 851 852 852 853 853 854 855 855 856 856 856 856 856 856 856 856 856 857 857 857 856 856 856 856 855 855 855 854 854 853
745 749 758 758 754 756 752 750 750 753 760 754 758 780 784 780 778 768 764 768 771 775 780 781 783 785 786 788 790 793 795 796 799 800 802 805 807 809 811 813 815 818 820 822 824 825 827 829 831 832 833 835 836 837 838 839 840 841 842 843 844 845 846 847 848 848 849 850 850 851 852 852 853 854 854 855 855 855 855 856 855 855 856 856 856 856 856 856 855 855 855 855 855 855 854 853 853
750 750 758 762 764 765 752 748 751 755 760 750 762 793 790 776 770 762 763 767 771 778 780 781 783 783 785 787 789 792 793 795 797 798 801 802 806 807 809 812 813 816 817 820 822 823 825 827 829 830 832 833 834 836 837 838 839 840 841 842 843 844 845 846 846 847 848 848 849 850 850 851 852 852 853 853 854 854 854 855 855 855 855 855 855 855 855 855 855 855 855 855 855 854 854 853 853
753 756 758 762 771 769 751 749 755 760 760 750 765 790 781 765 764 761 762 765 770 778 779 780 781 782 784 785 787 790 790 793 794 796 799 801 804 805 808 810 812 814 816 818 820 821 824 825 827 828 830 832 833 835 836 837 838 839 840 841 841 842 843 844 845 845 846 847 848 848 849 849 850 851 851 852 852 853 853 853 854 854 854 854 854 855 855 854 854 855 854 854 854 854 853 853 852
753 765 770 763 766 767 757 752 753 761 762 754 769 786 774 760 759 759 760 763 768 775 777 778 779 781 783 784 786 788 789 791 793 795 797 799 802 803 806 808 810 812 814 816 818 820 822 823 825 826 828 830 831 833 834 835 837 837 838 839 840 841 842 843 843 844 844 845 846 847 847 848 848 849 849 850 851 851 852 852 852 852 852 852 853 853 854 854 854 854 854 853 853 853 853 852 852
755 764 771 761 762 768 766 758 749 754 763 762 770 779 773 760 756 758 759 761 767 772 774 776 778 779 781 783 784 786 787 789 791 792 794 797 799 801 804 806 808 810 812 815 816 818 820 822 824 825 826 828 830 831 833 834 835 836 837 838 839 840 841 841 841 842 843 844 844 845 846 846 847 847 848 848 849 850 850 851 851 851 851 851 852 852 852 853 853 853 853 853 853 853 852 852 851
761 761 763 755 755 762 767 766 753 749 762 768 769 771 769 760 757 759 760 760 765 770 772 773 775 777 778 780 782 783 786 788 788 789 792 795 797 800 802 804 807 809 811 813 815 816 818 820 822 823 825 826 828 830 831 833 834 835 835 836 838 838 839 840 840 841 841 842 843 843 844 844 845 845 846 846 847 848 849 849 850 850 850 850 851 851 851 851 851 852 852 852 852 852 852 851 850
761 762 763 758 754 758 763 765 756 751 761 768 771 774 768 761 760 761 760 759 765 768 768 770 772 775 777 778 780 781 783 784 784 785 789 792 795 798 800 802 805 806 809 811 813 815 816 818 820 822 824 825 827 828 830 831 832 833 834 835 836 837 837 838 838 839 839 840 841 841 842 842 844 844 844 845 845 846 847 848 848 848 849 849 849 850 850 850 850 850 851 851 851 851 851 850 850
751 752 756 758 756 757 755 754 749 750 763 767 770 775 768 762 763 763 761 759 764 766 765 768 770 772 775 777 777 778 780 780 780 783 786 789 792 795 797 800 802 804 806 808 811 812 814 816 818 820 822 823 825 827 828 829 830 831 832 833 834 834 835 836 836 837 837 838 839 840 840 841 842 842 843 843 844 845 845 846 846 847 848 848 848 848 849 849 849 849 849 849 850 849 849 849 849
741 746 750 751 751 753 747 747 745 743 761 767 763 768 766 761 760 760 760 760 764 767 767 768 769 770 772 774 775 775 777 775 775 780 783 786 790 792 795 797 799 802 804 806 808 810 811 813 816 817 819 821 823 824 825 826 827 829 830 831 831 832 833 834 834 835 836 837 837 838 839 839 840 840 841 842 843 843 844 845 845 846 846 846 847 847 848 848 848 848 848 848 848 848 848 848 848
741 745 748 750 749 746 740 745 746 742 757 763 758 765 766 759 757 756 759 763 765 765 766 768 767 768 769 771 773 773 773 771 772 777 780 783 786 789 792 794 796 798 800 803 804 807 809 811 813 815 817 819 820 821 823 824 825 826 827 828 829 830 831 832 832 833 834 835 836 837 837 838 838 839 840 840 841 842 842 843 844 844 845 846 846 846 847 847 847 848 847 847 847 847 847 847 847
743 744 747 752 746 742 744 747 748 747 756 761 758 765 766 757 754 755 757 761 760 758 759 762 764 766 767 768 770 770 771 771 771 773 776 779 782 785 788 790 793 795 797 800 802 804 806 808 810 812 814 816 817 819 820 822 823 824 825 826 828 829 829 830 831 832 833 833 834 835 836 836 837 838 839 839 840 841 841 842 843 844 845 845 846 846 846 847 847 847 847 847 847 846 846 846 846
743 743 749 752 741 747 761 758 753 750 752 756 756 764 765 757 754 753 753 754 754 753 754 755 758 761 763 763 764 766 768 770 770 771 772 774 778 781 784 786 789 791 793 796 798 801 803 805 807 809 811 813 814 816 817 819 821 822 824 825 826 827 828 829 830 830 831 832 833 834 835 835 836 837 838 839 839 840 841 841 843 843 844 845 845 846 846 846 846 846 846 846 846 845 844 845 846
742 739 744 746 739 746 757 754 754 753 753 752 757 772 771 759 759 756 750 749 751 751 753 755 755 755 757 758 759 761 763 765 768 768 768 770 773 776 779 782 785 787 790 792 794 797 799 801 804 806 808 810 812 814 815 817 819 821 822 824 825 826 827 828 828 829 830 830 832 832 833 834 835 836 837 838 838 839 840 841 842 843 843 844 845 845 845 845 846 846 846 846 846 845 844 844 845
744 736 734 736 735 740 745 747 757 769 771 757 760 788 784 758 757 757 749 749 751 750 751 755 755 753 755 757 757 757 757 759 761 763 764 765 768 772 775 779 781 784 786 788 791 794 796 798 801 803 805 807 809 811 813 815 817 819 820 821 823 824 825 825 826 827 828 829 830 831 832 833 834 835 836 836 837 838 839 840 841 842 843 844 844 845 845 845 845 845 845 846 846 846 845 845 845
747 732 725 729 731 737 742 747 761 775 775 756 754 784 788 764 755 750 745 749 751 750 750 749 751 751 752 753 753 753 754 755 756 758 759 760 763 767 771 774 777 780 782 785 788 791 793 796 798 800 802 804 807 809 811 813 815 817 818 819 820 821 822 823 825 826 827 828 829 830 831 831 832 833 835 836 836 837 838 839 840 841 842 843 843 844 844 844 844 845 845 845 846 846 846 846 845
743 721 719 729 732 739 741 747 761 762 758 756 753 768 785 778 757 742 740 747 750 750 749 746 745 746 746 746 747 748 749 750 752 755 756 756 759 762 766 770 773 776 779 782 785 788 790 793 795 797 800 802 804 806 808 810 812 814 816 818 819 820 820 821 823 824 825 826 827 828 829 830 831 833 834 835 836 837 838 839 840 841 842 842 843 844 844 844 845 845 845 845 846 846 846 847 846
732 713 716 725 730 736 737 744 756 753 759 775 762 760 785 783 755 740 741 748 753 750 745 742 740 739 740 740 741 742 743 745 747 750 752 752 754 758 762 766 769 773 776 779 782 785 787 790 792 794 797 799 801 803 805 807 810 812 814 815 816 818 819 820 821 823 824 825 826 827 828 829 831 832 833 834 835 836 837 838 839 840 842 842 843 843 844 844 845 845 845 845 846 846 846 847 847
721 712 718 723 726 731 734 741 750 752 765 778 762 757 782 782 754 745 749 752 751 744 736 734 732 732 733 733 734 736 738 740 742 744 746 748 750 754 758 762 766 769 772 776 779 781 785 787 789 792 793 796 798 800 802 804 807 809 811 813 814 816 817 818 820 821 822 823 824 826 827 828 830 831 832 833 834 835 836 838 839 840 841 842 842 843 843 844 844 844 845 845 845 845 846 846 846
717 720 727 730 730 731 735 737 742 757 767 766 754 748 769 780 755 738 744 744 737 732 728 727 726 726 727 727 729 730 732 735 737 739 740 743 747 751 755 758 762 766 769 772 775 778 781 783 786 788 790 793 795 797 799 802 804 806 808 810 811 813 815 817 818 819 820 821 823 824 826 828 829 830 831 832 833 834 836 837 838 839 840 840 841 841 842 842 843 843 844 844 845 845 845 846 846
720 729 734 742 746 745 750 749 753 772 774 760 748 740 757 778 756 728 726 725 721 722 722 720 721 722 721 722 723 723 726 729 732 736 737 740 744 747 750 754 757 762 765 768 771 774 777 779 782 784 787 789 792 794 796 798 801 803 805 807 809 811 813 814 815 816 817 819 821 823 825 826 827 828 829 830 832 833 834 836 836 837 838 838 839 840 840 841 841 842 843 844 844 845 845 845 845
726 732 737 753 765 768 776 772 769 778 770 750 741 739 752 761 742 722 717 714 713 712 710 709 710 713 715 718 718 718 721 724 727 731 734 736 739 742 745 749 753 756 760 763 766 769 772 775 777 780 783 786 788 791 793 795 797 800 802 804 806 808 810 811 812 814 815 817 820 821 823 824 825 827 828 829 830 831 833 834 835 835 836 837 837 838 839 840 840 841 842 843 843 844 845 845 845
730 733 738 754 765 779 790 780 773 775 762 742 733 740 752 750 731 718 713 709 706 703 701 701 702 705 709 711 712 714 716 718 722 725 729 731 734 737 740 744 748 751 755 758 762 765 768 771 773 776 779 782 785 787 789 792 794 796 799 801 803 805 807 808 810 812 813 815 817 819 820 822 823 824 825 827 828 829 831 832 833 834 834 835 836 837 838 839 840 840 841 842 842 843 844 844 845
727 720 726 740 746 761 776 771 770 771 758 743 739 748 756 749 728 709 704 701 698 698 696 695 698 700 702 704 707 710 711 713 716 718 722 724 727 732 736 739 743 746 750 753 757 760 763 766 769 772 775 778 781 784 786 788 790 793 795 798 800 802 803 805 807 810 812 813 815 816 818 819 820 822 823 825 827 828 829 830 831 832 833 834 835 836 837 838 839 840 840 841 841 842 843 844 844
723 712 721 731 726 732 747 749 747 749 754 749 742 746 741 726 712 700 700 700 696 697 695 694 699 699 699 704 704 705 707 707 710 713 715 718 721 726 730 734 738 741 745 748 751 755 758 762 764 767 771 774 777 780 782 784 787 790 792 794 796 798 800 802 805 807 809 811 812 813 815 816 818 820 821 823 825 826 827 828 829 830 831 833 834 835 837 838 838 839 839 840 840 841 842 842 843
718 718 724 717 705 713 735 744 734 737 758 749 733 741 735 721 715 703 700 704 699 698 697 695 697 697 700 703 701 701 701 702 704 706 709 711 714 719 722 727 731 735 739 742 746 749 752 756 760 763 767 771 774 776 778 781 783 786 788 791 793 794 797 800 802 805 807 808 809 810 812 815 816 818 819 821 822 824 825 827 828 829 831 832 833 834 836 836 838 838 839 839 840 840 840 841 842
712 722 715 704 705 711 723 742 745 750 764 746 727 739 740 736 731 709 700 706 702 698 695 691 692 695 699 699 697 697 696 697 699 700 704 706 707 711 715 720 724 728 733 737 740 744 748 752 755 759 763 766 769 771 774 777 779 782 785 787 789 792 794 797 800 802 803 805 806 808 810 812 814 816 817 819 820 822 823 825 827 829 830 831 832 833 834 835 836 837 838 839 839 839 840 840 841
698 703 696 703 727 733 727 737 748 755 762 749 734 731 730 731 725 708 705 707 701 696 692 689 690 693 695 693 692 693 693 694 696 697 701 702 702 705 709 713 718 722 727 732 736 740 744 748 751 755 759 761 765 768 770 773 775 779 782 783 786 789 792 794 797 798 800 802 804 805 808 810 811 813 815 817 819 820 821 823 825 827 829 830 831 832 833 834 835 836 837 838 838 838 839 839 839
694 695 694 700 714 724 725 727 733 743 751 750 743 734 725 717 706 701 703 699 694 694 691 689 688 686 687 688 687 689 691 692 692 693 696 696 697 699 702 708 712 717 723 727 732 736 739 744 747 751 755 758 762 764 766 769 772 775 778 780 783 785 788 791 793 795 797 799 801 803 805 808 809 811 813 815 817 818 820 821 822 825 827 828 830 831 832 833 833 834 835 836 836 837 837 837 838
702 708 711 706 703 708 715 715 716 727 739 743 744 739 720 699 688 690 693 690 689 690 689 687 684 679 679 680 681 683 686 687 687 688 689 690 692 693 697 703 707 712 718 722 727 731 734 739 742 746 750 754 757 759 762 765 768 772 775 777 780 782 784 787 789 791 793 796 799 800 803 805 807 809 811 813 815 817 819 820 821 823 825 827 829 830 831 831 832 833 834 835 835 836 836 836 836
694 705 709 707 705 712 725 726 713 712 723 728 732 737 716 684 675 681 684 685 684 683 685 684 679 675 672 673 675 677 680 682 683 683 684 685 687 690 694 699 703 708 712 717 721 725 729 733 737 741 745 749 752 754 757 761 764 768 770 772 775 777 779 782 785 787 790 794 796 798 800 803 805 808 810 811 813 815 818 821 822 824 825 827 828 829 830 830 831 831 832 834 834 834 835 835 835